User: anonymous   Login
Location: Unspecified
(0.0000°N, 0.0000°E)
Time: 21:08:53
(UTC+00:00)
Language:

Hubble Space Telescope - Orbit

View from above orbital plane
View from above orbital plane
View from above satellite
View from above satellite

Ground track
Ground track

The orbit data is extracted from the following two-line orbital elements,

1 20580U 90037B   18050.79788153 +.00000509 +00000-0 +20241-4 0  9993
2 20580 028.4688 171.0840 0002606 321.7282 172.1415 15.08981846327635
Epoch (UTC): 19 February 2018 19:08:56
Eccentricity: 0.0002606
inclination: 28.4688°
perigee height: 537 km
apogee height: 541 km
right ascension of ascending node: 171.0840°
argument of perigee: 321.7282°
revolutions per day: 15.08981846
mean anomaly at epoch: 172.1415°
orbit number at epoch: 32763

The dashed part of the orbit path shows where the satellite is in the earth's shadow,  

DLR